Location: Doverdale
(52.2833°N, 2.2000°W)
Time: 11:54:41
(UTC+00:00)

USA 305 - Pass Details

Date: 29 October 2020
Orbit: 569 x 577 km, 54.0° (Epoch: 22 November)

Event Time Altitude Azimuth Distance (km) Brightness Sun altitude
Rises 17:47:23 0° 289° (WNW) 2,790 7.6 -10.1°
Reaches altitude 10° 17:49:39 10° 287° (WNW) 1,888 6.7 -10.4°
Maximum altitude 17:53:55 69° 205° (SSW) 617 3.2 -11.1°
Enters shadow 17:58:08 10° 122° (ESE) 1,864 5.1 -11.7°
